• In Austria
  • List of Countries
  • For 7 days
  • Water Temperature
  • Satellite Maps
  • Weather Map
  • News
  • Weather Widgets
  • user-avatar
    Login

    Hourly Weather Biatris

    Today, 19 December, Tuesday

    Time Temperature Precipitation Wind Pressure Humidity
    00:00 +22°C° 0 mm 3 mps 652 mmHg 64%
    01:00 +21°C° 0 mm 3 mps 652 mmHg 67%
    02:00 +21°C° 0 mm 3 mps 652 mmHg 70%
    03:00 +20°C° 0 mm 2 mps 652 mmHg 73%
    04:00 +20°C° 0 mm 2 mps 651 mmHg 77%
    05:00 +19°C° 0 mm 2 mps 651 mmHg 80%
    06:00 +21°C° 0 mm 2 mps 652 mmHg 73%
    07:00 +24°C° 0 mm 2 mps 653 mmHg 65%
    08:00 +26°C° 0 mm 2 mps 653 mmHg 57%
    09:00 +28°C° 0 mm 2 mps 653 mmHg 48%
    10:00 +30°C° 0 mm 3 mps 654 mmHg 40%
    11:00 +33°C° 0 mm 3 mps 654 mmHg 31%
    12:00 +34°C° 0 mm 3 mps 653 mmHg 30%
    13:00 +34°C° 0 mm 3 mps 653 mmHg 30%
    14:00 +35°C° 0 mm 3 mps 652 mmHg 29%
    15:00 +33°C° 0 mm 3 mps 652 mmHg 34%
    16:00 +31°C° 0 mm 3 mps 651 mmHg 38%
    17:00 +30°C° 0 mm 2 mps 651 mmHg 43%
    18:00 +28°C° 0 mm 2 mps 651 mmHg 48%
    19:00 +27°C° 0 mm 2 mps 651 mmHg 53%
    20:00 +26°C° 0 mm 2 mps 652 mmHg 58%
    21:00 +25°C° 0.1 mm 2 mps 652 mmHg 63%
    22:00 +24°C° 0.1 mm 2 mps 652 mmHg 69%
    23:00 +23°C° 0.1 mm 2 mps 653 mmHg 75%

    Tomorrow, 20 December, Wednesday

    Time Temperature Precipitation Wind Pressure Humidity
    00:00 +23°C° 0 mm 2 mps 652 mmHg 78%
    01:00 +21°C° 0 mm 2 mps 652 mmHg 81%
    02:00 +21°C° 0 mm 2 mps 652 mmHg 84%
    03:00 +20°C° 0.1 mm 2 mps 652 mmHg 85%
    04:00 +20°C° 0.1 mm 2 mps 652 mmHg 87%
    05:00 +20°C° 0.1 mm 2 mps 652 mmHg 88%
    06:00 +21°C° 0 mm 2 mps 653 mmHg 81%
    07:00 +24°C° 0 mm 3 mps 653 mmHg 73%
    08:00 +26°C° 0 mm 3 mps 654 mmHg 65%
    09:00 +27°C° 0.3 mm 3 mps 654 mmHg 59%
    10:00 +29°C° 0.3 mm 3 mps 654 mmHg 53%
    11:00 +30°C° 0.3 mm 3 mps 654 mmHg 48%
    12:00 +30°C° 0.4 mm 3 mps 654 mmHg 47%
    13:00 +30°C° 0.4 mm 3 mps 653 mmHg 46%
    14:00 +31°C° 0.4 mm 3 mps 652 mmHg 46%
    15:00 +30°C° 1 mm 3 mps 652 mmHg 49%
    16:00 +29°C° 1 mm 4 mps 652 mmHg 53%
    17:00 +28°C° 1 mm 4 mps 652 mmHg 57%
    18:00 +27°C° 1.6 mm 4 mps 652 mmHg 63%
    19:00 +25°C° 1.6 mm 4 mps 653 mmHg 69%
    20:00 +23°C° 1.6 mm 4 mps 653 mmHg 75%
    21:00 +22°C° 0.7 mm 3 mps 653 mmHg 77%
    22:00 +22°C° 0.7 mm 3 mps 654 mmHg 78%
    23:00 +21°C° 0.7 mm 3 mps 654 mmHg 80%

    Day after tomorrow, 21 December, Thursday

    Time Temperature Precipitation Wind Pressure Humidity
    00:00 +21°C° 0.1 mm 3 mps 653 mmHg 82%
    01:00 +21°C° 0.1 mm 3 mps 653 mmHg 83%
    02:00 +20°C° 0.1 mm 3 mps 653 mmHg 85%
    03:00 +20°C° 0.1 mm 2 mps 653 mmHg 87%
    04:00 +20°C° 0.1 mm 2 mps 653 mmHg 89%
    05:00 +19°C° 0.1 mm 2 mps 653 mmHg 91%
    06:00 +20°C° 0.7 mm 2 mps 653 mmHg 86%
    07:00 +21°C° 0.7 mm 3 mps 654 mmHg 82%
    08:00 +24°C° 0.7 mm 3 mps 655 mmHg 77%
    09:00 +24°C° 1.2 mm 3 mps 654 mmHg 74%
    10:00 +25°C° 1.2 mm 3 mps 654 mmHg 71%
    11:00 +26°C° 1.2 mm 3 mps 654 mmHg 68%
    12:00 +27°C° 1.4 mm 3 mps 654 mmHg 65%
    13:00 +28°C° 1.4 mm 3 mps 653 mmHg 61%
    14:00 +29°C° 1.4 mm 3 mps 653 mmHg 58%
    15:00 +27°C° 2.6 mm 2 mps 652 mmHg 65%
    16:00 +26°C° 2.6 mm 2 mps 652 mmHg 72%
    17:00 +25°C° 2.6 mm 2 mps 651 mmHg 79%
    18:00 +24°C° 1.6 mm 2 mps 652 mmHg 81%
    19:00 +23°C° 1.6 mm 2 mps 652 mmHg 83%
    20:00 +23°C° 1.6 mm 1 mps 653 mmHg 85%
    21:00 +22°C° 0.4 mm 1 mps 653 mmHg 86%
    22:00 +22°C° 0.4 mm 1 mps 653 mmHg 87%
    23:00 +22°C° 0.4 mm 1 mps 653 mmHg 88%

    22 December, Friday

    Time Temperature Precipitation Wind Pressure Humidity
    00:00 +21°C° 0 mm 1 mps 652 mmHg 89%
    01:00 +21°C° 0 mm 1 mps 652 mmHg 90%
    02:00 +21°C° 0 mm 1 mps 651 mmHg 92%
    03:00 +21°C° 0 mm 1 mps 652 mmHg 92%
    04:00 +20°C° 0 mm 1 mps 652 mmHg 93%
    05:00 +20°C° 0 mm 1 mps 652 mmHg 94%
    06:00 +21°C° 0 mm 2 mps 653 mmHg 88%
    07:00 +23°C° 0 mm 2 mps 653 mmHg 81%
    08:00 +25°C° 0 mm 3 mps 654 mmHg 75%
    09:00 +26°C° 0.2 mm 3 mps 654 mmHg 69%
    10:00 +27°C° 0.2 mm 3 mps 654 mmHg 63%
    11:00 +29°C° 0.2 mm 3 mps 654 mmHg 57%
    12:00 +29°C° 0.5 mm 3 mps 653 mmHg 54%
    13:00 +30°C° 0.5 mm 3 mps 652 mmHg 52%
    14:00 +30°C° 0.5 mm 3 mps 652 mmHg 50%
    15:00 +30°C° 0.8 mm 3 mps 651 mmHg 54%
    16:00 +29°C° 0.8 mm 2 mps 651 mmHg 58%
    17:00 +28°C° 0.8 mm 2 mps 651 mmHg 62%
    18:00 +27°C° 0.9 mm 2 mps 651 mmHg 68%
    19:00 +25°C° 0.9 mm 2 mps 651 mmHg 73%
    20:00 +24°C° 0.9 mm 2 mps 651 mmHg 79%
    21:00 +24°C° 0.5 mm 2 mps 651 mmHg 80%
    22:00 +23°C° 0.5 mm 2 mps 651 mmHg 82%
    23:00 +23°C° 0.5 mm 2 mps 651 mmHg 83%

    23 December, Saturday

    Time Temperature Precipitation Wind Pressure Humidity
    00:00 +22°C° 0.3 mm 1 mps 650 mmHg 85%
    01:00 +22°C° 0.3 mm 1 mps 650 mmHg 86%
    02:00 +22°C° 0.3 mm 1 mps 650 mmHg 88%
    03:00 +21°C° 0.4 mm 1 mps 650 mmHg 88%
    04:00 +21°C° 0.4 mm 1 mps 650 mmHg 88%
    05:00 +21°C° 0.4 mm 1 mps 650 mmHg 89%
    06:00 +23°C° 0.1 mm 1 mps 651 mmHg 82%
    07:00 +24°C° 0.1 mm 2 mps 651 mmHg 76%
    08:00 +26°C° 0.1 mm 2 mps 652 mmHg 70%
    09:00 +27°C° 0.6 mm 3 mps 652 mmHg 64%
    10:00 +28°C° 0.6 mm 3 mps 652 mmHg 58%
    11:00 +30°C° 0.6 mm 3 mps 652 mmHg 53%
    12:00 +30°C° 0.5 mm 3 mps 652 mmHg 52%
    13:00 +30°C° 0.5 mm 3 mps 651 mmHg 51%
    14:00 +30°C° 0.5 mm 3 mps 650 mmHg 49%
    15:00 +29°C° 1 mm 2 mps 650 mmHg 55%
    16:00 +28°C° 1 mm 2 mps 650 mmHg 60%
    17:00 +27°C° 1 mm 2 mps 650 mmHg 65%
    18:00 +26°C° 1 mm 2 mps 650 mmHg 70%
    19:00 +25°C° 1 mm 2 mps 650 mmHg 75%
    20:00 +22°C° 1 mm 3 mps 650 mmHg 80%
    21:00 +23°C° 0.4 mm 2 mps 650 mmHg 82%
    22:00 +23°C° 0.4 mm 1 mps 650 mmHg 84%
    23:00 +22°C° 0.4 mm 1 mps 650 mmHg 85%

    24 December, Sunday

    Time Temperature Precipitation Wind Pressure Humidity
    00:00 +22°C° 2.2 mm 1 mps 650 mmHg 87%
    01:00 +22°C° 2.2 mm 1 mps 650 mmHg 90%
    02:00 +22°C° 2.2 mm 1 mps 649 mmHg 92%
    03:00 +22°C° 0.9 mm 1 mps 650 mmHg 92%
    04:00 +22°C° 0.9 mm 1 mps 650 mmHg 92%
    05:00 +22°C° 0.9 mm 1 mps 650 mmHg 92%
    06:00 +22°C° 1.2 mm 1 mps 650 mmHg 90%
    07:00 +22°C° 1.2 mm 1 mps 651 mmHg 88%
    08:00 +23°C° 1.2 mm 1 mps 651 mmHg 86%
    09:00 +24°C° 1.1 mm 1 mps 651 mmHg 81%
    10:00 +25°C° 1.1 mm 2 mps 651 mmHg 76%
    11:00 +26°C° 1.1 mm 2 mps 651 mmHg 72%
    12:00 +26°C° 1.3 mm 2 mps 651 mmHg 72%
    13:00 +26°C° 1.3 mm 2 mps 650 mmHg 72%
    14:00 +26°C° 1.3 mm 2 mps 650 mmHg 72%
    15:00 +25°C° 1.8 mm 2 mps 650 mmHg 74%
    16:00 +25°C° 1.8 mm 2 mps 650 mmHg 77%
    17:00 +24°C° 1.8 mm 2 mps 650 mmHg 79%
    18:00 +23°C° 1 mm 2 mps 650 mmHg 82%
    19:00 +23°C° 1 mm 2 mps 650 mmHg 86%
    20:00 +21°C° 1 mm 2 mps 650 mmHg 89%
    21:00 +20°C° 0.3 mm 2 mps 650 mmHg 90%
    22:00 +20°C° 0.3 mm 2 mps 651 mmHg 90%
    23:00 +20°C° 0.3 mm 2 mps 651 mmHg 90%
    Show more